SCP
0 0 0 0 0 0 0 0 0 0 0 0 0 0 0 0 0 0 0 0 0 0 0 0 0 0 0 0 0 0 0 0 0 0 0 0 0 -0 -0 -0 -0 -0 -0
0 0 0 0 0 0 0 0 0 0 0 0 0 0 0 0 0 0 0 0 0 0 0 0 0 0 0 0 0 0 0 0 0 0 0 0 0 0 0 -0 -0 -0 -0
0 0 0 0 0 0 0 0 0 0 0 0 0 0 0 0 0 0 0 0 0 0 0 0 0 0 0 0 0 0 0 0 0 0 0 0 0 0 0 0 0 0 0
0 0 0 0 0 0 0 0 0 0 0 0 0 0 0 0 0 0 0 0 0 0 0 0 0 0 0 0 0 0 0 0 0 0 0 0 0 0 0 0 0 0 0
0 0 0 0 0 0 0 0 0 0 0 0 0 0 0 0 0 0 0 0 0 0 0 0 0 0 0 0 0 0 0 0 0 0 0 0 0 0 0 0 0 0 0
0 0 0 0 0 0 0 0 0 0 0 0 0 0 0 0 0 0 0 0 0 0 0 0 0 0 0 0 0 0 0 0 0 0 0 0 0 0 0 0 0 0 0
0 0 0 0 0 0 0 0 0 0 0 0 0 0 0 0 0 0 0 0 0 0 0 0 0 0 0 0 0 0 0 0 0 0 0 0 0 0 0 0 0 0 0
0 0 0 0 0 0 0 0 0 0 0 0 0 0 0 0 0 0 0 0 0 0 0 0 0 0 0 0 0 0 0 0 0 0 0 0 0 0 0 0 0 0 0
0 0 0 0 0 0 0 0 0 0 0 0 0 0 0 0 0 0 0 0 0 0 0 0 0 0 0 0 0 0 0 0 0 0 0 0 0 0 0 0 0 0 0
0 0 0 0 0 0 0 0 0 0 0 0 0 0 0 0 0 0 0 0 0 0 0 0 0 0 0 0 0 0 0 0 0 0 0 0 0 0 0 0 0 0 0
0 0 0 0 0 0 0 0 0 0 0 0 0 0 0 0 0 0 0 0 0 0 0 0 0 0 0 0 0 0 0 0 0 0 0 0 0 0 0 0 0 0 0
0 0 0 0 0 0 0 0 0 0 0 0 0 0 0 0 0 0 0 0 0 0 0 0 0 0 0 0 0 0 0 0 0 0 0 0 0 0 0 0 0 0 0
0 0 0 0 0 0 0 0 0 0 0 0 0 0 0 0 0 0 0 0 0 0 0 0 0 0 0 0 0 0 0 0 0 0 0 0 0 0 0 0 0 0 0
0 0 0 0 0 0 0 0 0 0 0 0 0 0 0 0 0 0 0 0 0 0 0 0 0 0 0 0 0 0 0 0 0 0 0 0 0 0 0 0 0 0 0
0 0 0 0 0 0 0 0 0 0 0 0 0 0 0 0 0 0 0 0 0 0 0 0 0 0 0 0 0 0 0 0 0 0 0 0 0 0 0 0 0 0 0
0 0 0 0 0 0 0 0 0 0 0 0 0 0 0 0 0 0 0 0 0 0 0 0 0 0 0 0 0 0 0 0 0 0 0 0 0 0 0 0 0 0 0
0 0 0 0 0 0 0 0 0 0 0 0 0 0 0 0 0 0 0 0 0 0 0 0 0 0 0 0 0 0 0 0 0 0 0 0 0 0 0 0 0 0 0
0 0 0 0 0 0 0 0 0 0 0 0 0 0 0 0 0 0 0 0 0 0 0 0 0 0 0 0 0 0 0 0 0 0 0 0 0 0 0 0 0 0 0
0 0 0 0 0 0 0 0 0 0 0 0 0 0 0 0 0 0 0 0 0 0 0 0 0 0 0 0 0 0 0 0 0 0 0 0 0 0 0 0 0 0 0
0 0 0 0 0 0 0 0 0 0 0 0 0 0 0 0 0 0 0 0 0 0 0 0 0 0 0 0 0 0 0 0 0 0 0 0 0 0 0 0 0 0 0
0 0 0 0 0 0 0 0 0 0 0 0 0 0 0 0 0 0 0 0 0 0 0 0 0 0 0 0 0 0 0 0 0 0 0 0 0 0 0 0 0 0 0
0 0 0 0 0 0 0 0 0 0 0 0 0 0 0 0 0 0 0 0 0 0 0 0 0 0 0 0 0 0 0 0 0 -0 0 0 0 0 0 0 0 0 0
0 0 0 0 0 0 0 0 0 0 0 0 0 0 0 0 0 0 0 0 0 0 0 0 0 0 0 0 0 0 0 0 -0 -0 -0 -0 -0 -0 0 0 0 0 0
0 0 0 0 0 0 0 0 0 0 0 0 0 0 0 0 0 0 0 0 0 0 0 0 0 0 0 0 0 -0 -0 -0 -0 -0 -0 -0 -0 -0 -0 0 0 0 0
0 0 0 0 0 0 0 0 0 0 0 0 0 0 0 0 0 0 0 0 0 0 0 0 0 0 0 0 -0 -0 -0 -0 0 -0 -0 -0 0 0 0 0 0 0 0
0 0 0 0 0 0 0 0 0 0 0 0 0 0 0 0 0 0 0 0 0 0 0 0 0 0 0 -0 -0 -0 0 0 0 -0 -0 0 0 0 0 0 0 0 0
Wind_Speed_500mb
68 62 58 53 50 45 39 34 30 27 25 23 18 13 9 5 5 10 14 16 19 21 25 28 29 31 34 35 38 40 42 46 60 81 80 83 91 96 95 89 88 86 81
70 65 59 54 51 48 43 38 35 32 30 26 21 18 14 9 7 9 12 16 20 24 27 31 33 36 39 42 45 45 49 52 59 75 82 85 88 93 92 90 84 83 82
74 69 64 60 56 50 45 44 39 37 34 31 26 23 19 13 11 11 13 17 22 26 29 33 37 42 45 47 49 51 53 55 59 68 82 85 92 92 92 91 91 88 86
79 74 69 66 58 52 49 46 42 39 37 35 32 29 25 19 17 17 18 22 24 27 31 35 40 44 49 51 53 54 56 58 62 68 78 88 91 92 90 89 96 92 95
82 77 72 64 59 56 52 49 46 44 42 40 38 36 30 26 25 26 26 26 29 32 35 39 43 46 49 52 56 57 58 59 61 66 76 84 85 78 84 87 83 93 93
84 80 74 66 63 59 55 53 50 48 48 46 43 40 36 33 32 33 33 35 37 39 41 44 46 48 50 52 55 56 55 53 56 60 69 72 82 77 80 85 91 87 85
85 83 76 70 66 62 59 57 55 55 52 50 49 45 41 39 40 41 40 42 45 45 47 49 51 52 51 53 54 55 54 51 44 49 67 75 79 78 78 85 82 86 85
86 83 78 74 68 65 61 58 57 56 54 54 52 48 45 44 45 47 47 50 50 49 51 53 55 55 52 54 58 59 59 60 62 65 69 69 63 70 75 74 74 79 80
77 80 77 73 68 63 63 61 60 55 56 56 51 49 48 48 50 51 52 54 53 53 55 57 58 58 53 54 55 57 60 65 64 68 64 60 66 66 64 65 67 61 70
65 64 66 62 57 58 58 55 52 53 52 50 50 48 50 51 53 54 54 56 57 57 59 60 60 59 58 52 48 51 62 68 71 72 65 62 60 60 56 52 55 57 64
48 51 51 52 52 48 47 48 49 50 50 50 50 49 50 52 55 54 54 57 60 62 64 63 62 60 59 54 39 51 62 57 67 66 63 62 58 56 55 54 54 55 59
39 41 44 44 43 42 42 44 47 49 50 49 51 51 53 54 53 53 55 58 60 66 67 64 63 62 62 51 40 54 56 64 64 60 57 57 56 56 55 56 58 56 53
38 40 40 40 39 37 39 41 44 45 49 52 56 57 57 56 54 54 57 59 59 62 65 66 66 63 45 47 57 61 59 61 58 58 54 53 53 56 57 58 59 59 58
34 35 38 42 41 38 38 41 44 48 52 55 59 62 59 55 53 53 55 57 59 61 62 63 62 59 54 55 61 57 61 58 54 53 52 51 53 55 56 56 61 64 67
35 40 46 47 46 43 43 44 46 48 51 56 59 57 56 58 55 58 60 61 62 60 59 65 66 62 59 58 60 63 63 54 51 48 49 51 52 54 55 53 55 60 63
38 42 49 53 50 49 48 48 51 55 58 59 58 56 53 56 56 58 58 59 50 49 61 71 78 70 66 63 68 69 63 53 48 48 48 48 50 52 53 52 52 55 61
37 39 45 51 54 55 55 56 56 55 54 48 44 44 46 49 48 38 39 46 51 51 63 72 80 79 77 70 71 68 62 50 48 47 47 47 47 47 47 48 51 54 58
38 40 42 45 51 55 55 53 49 43 38 37 41 45 47 51 54 53 46 47 63 63 68 75 78 77 75 76 68 65 57 50 47 46 45 44 42 43 44 43 47 51 56
39 41 43 44 46 45 42 38 35 34 35 39 42 42 46 51 55 56 56 57 63 68 72 74 66 62 64 64 66 60 55 49 46 45 42 41 38 40 38 38 44 45 49
40 43 42 39 36 33 31 31 32 35 37 39 41 45 48 54 56 57 55 53 53 54 58 62 64 65 63 64 61 55 52 45 43 42 39 38 34 34 35 36 39 44 46
36 35 33 30 29 29 30 32 34 35 36 38 40 42 44 49 52 51 51 48 47 47 45 40 36 38 44 48 47 48 47 44 40 37 37 36 32 32 29 31 35 37 42
30 29 28 27 27 29 30 31 32 33 35 36 37 38 39 39 40 41 41 40 39 40 40 43 44 48 47 41 40 44 45 43 36 34 37 35 32 29 27 27 29 31 35
27 26 26 26 27 28 29 30 32 33 33 35 36 35 34 33 34 34 34 33 33 33 34 37 40 41 39 39 41 43 46 40 35 36 37 35 32 28 26 26 26 26 30
24 25 25 25 26 27 27 29 31 32 33 33 31 30 30 31 32 32 32 32 32 31 31 33 36 37 38 39 39 41 41 39 38 36 37 35 32 28 28 26 24 21 23
20 21 21 22 24 27 27 28 30 30 30 29 29 30 30 31 31 31 31 32 32 32 31 34 35 36 37 37 37 36 38 39 39 36 36 36 35 31 28 27 24 21 20
21 22 23 24 24 26 27 26 26 27 27 29 31 32 34 34 33 33 33 34 35 35 36 33 34 34 36 37 36 36 36 36 34 33 36 37 37 34 32 31 26 24 24
Wind_Direction_500mb
197 198 199 199 200 201 200 201 205 209 211 212 209 211 220 245 322 350 352 344 340 331 326 319 314 313 312 314 313 314 316 316 314 317 322 324 323 326 327 326 325 324 324
201 202 202 205 206 204 204 207 211 214 216 216 217 221 227 245 296 329 336 339 335 332 325 318 313 312 309 310 310 312 313 313 313 314 317 321 323 325 326 327 326 323 324
204 206 207 209 210 209 210 213 214 216 218 220 225 231 234 249 276 294 314 320 323 322 322 318 315 312 309 306 306 307 307 308 310 312 315 320 324 327 328 326 327 325 324
208 210 212 213 213 214 216 217 219 220 223 227 230 236 239 249 262 279 291 302 305 308 314 317 315 309 305 304 303 304 305 309 312 313 317 322 324 327 327 325 322 322 322
213 215 217 216 216 217 220 222 222 223 227 230 237 239 243 254 265 275 282 286 290 296 302 308 309 307 304 302 303 305 306 310 312 316 318 321 322 318 319 318 311 313 316
219 221 220 218 220 222 225 227 226 229 231 236 242 242 250 259 267 275 280 281 283 288 296 302 306 308 304 301 301 303 305 307 311 312 319 310 309 312 311 311 314 312 312
225 225 223 223 224 228 230 230 232 235 236 242 245 247 256 263 271 278 279 279 280 283 290 299 305 307 303 301 300 301 302 304 306 305 303 308 307 317 318 313 306 301 303
230 228 227 227 228 231 233 237 238 237 241 247 248 254 260 268 274 277 278 277 280 284 290 298 301 301 301 299 300 302 305 310 311 311 308 307 312 307 307 307 306 304 303
231 230 229 229 231 234 237 239 239 240 245 247 252 259 267 272 274 275 274 276 279 284 289 294 297 299 300 298 299 302 302 301 307 305 305 308 313 315 314 315 318 317 312
231 232 229 231 233 239 241 242 243 246 248 250 255 263 270 274 272 272 272 276 280 284 287 290 293 297 299 298 291 294 292 298 305 308 313 312 314 315 318 322 327 319 308
229 227 227 230 235 238 240 240 242 245 248 252 259 264 269 272 272 271 271 275 280 283 285 289 293 295 294 292 284 277 282 299 298 302 307 311 313 317 322 329 329 322 314
221 220 221 225 228 227 228 231 235 241 248 253 257 260 264 269 274 275 274 275 278 282 285 289 292 293 293 290 277 268 278 294 299 300 304 308 313 320 324 327 327 327 321
209 216 220 219 217 220 230 238 242 245 250 254 257 262 268 270 274 276 277 277 278 279 285 290 293 295 284 273 276 282 287 298 295 296 301 308 313 318 321 322 325 329 325
217 222 222 223 226 233 239 242 247 251 255 260 264 267 271 273 273 275 278 278 279 282 287 289 287 279 277 278 286 289 297 298 291 296 301 306 310 315 318 324 328 330 328
230 230 229 231 235 240 244 248 252 257 261 263 264 263 265 270 275 276 281 283 283 284 287 287 284 279 280 283 283 288 295 292 288 291 296 303 309 313 316 323 328 330 330
236 238 239 241 244 248 252 255 259 262 265 266 265 265 267 274 279 283 285 288 284 285 291 290 288 285 284 285 285 289 293 289 287 290 296 303 308 311 315 321 328 331 331
249 248 246 247 249 253 257 260 262 263 265 265 266 270 278 283 284 283 279 276 276 272 267 267 272 274 275 278 283 287 290 286 285 290 297 303 305 307 312 319 328 331 333
256 258 259 257 255 255 258 260 261 260 260 264 270 277 280 282 284 285 283 287 281 276 269 268 268 272 276 280 280 286 286 282 283 289 295 299 301 304 310 319 327 332 334
259 259 257 255 254 255 256 256 258 263 268 271 273 276 282 286 287 288 287 284 282 278 273 271 271 273 272 274 280 282 279 278 283 289 293 295 298 300 306 317 326 331 333
256 256 255 253 252 253 255 259 265 270 273 278 285 291 295 296 295 295 296 295 291 285 280 278 275 273 274 276 279 277 273 275 282 287 290 290 292 296 303 316 327 330 335
253 250 249 247 247 252 259 265 269 274 281 287 293 296 298 298 304 306 308 306 300 294 291 288 285 283 284 280 275 270 271 277 282 286 284 285 290 292 295 311 324 330 335
245 243 244 249 256 259 263 267 275 282 288 292 293 295 296 302 306 307 306 305 302 297 293 286 284 287 289 283 275 273 276 279 282 281 280 283 285 288 289 305 320 328 340
243 247 251 255 258 263 271 277 282 286 288 289 292 297 302 307 307 307 306 304 299 295 292 286 283 283 282 278 277 278 278 279 280 277 279 279 281 285 282 297 314 325 343
247 248 250 257 265 271 276 280 281 283 286 290 295 300 302 302 304 305 305 304 302 297 294 289 286 285 284 282 279 276 277 279 278 277 277 276 279 283 279 286 301 311 333
246 253 264 271 274 275 278 282 286 289 291 293 293 294 295 297 301 303 305 303 302 299 296 291 288 288 286 284 281 279 277 277 277 276 275 274 274 279 280 278 290 290 310
254 265 269 271 277 281 284 286 287 288 290 290 292 294 296 298 300 302 304 303 301 301 299 296 292 290 287 285 283 280 278 276 275 275 274 273 272 276 278 272 276 282 289
Wind_Speed_850mb
68 62 58 53 50 45 39 34 30 27 25 23 18 13 9 5 5 10 14 16 19 21 25 28 29 31 34 35 38 40 42 46 60 81 80 83 91 96 95 89 88 86 81
70 65 59 54 51 48 43 38 35 32 30 26 21 18 14 9 7 9 12 16 20 24 27 31 33 36 39 42 45 45 49 52 59 75 82 85 88 93 92 90 84 83 82
74 69 64 60 56 50 45 44 39 37 34 31 26 23 19 13 11 11 13 17 22 26 29 33 37 42 45 47 49 51 53 55 59 68 82 85 92 92 92 91 91 88 86
79 74 69 66 58 52 49 46 42 39 37 35 32 29 25 19 17 17 18 22 24 27 31 35 40 44 49 51 53 54 56 58 62 68 78 88 91 92 90 89 96 92 95
82 77 72 64 59 56 52 49 46 44 42 40 38 36 30 26 25 26 26 26 29 32 35 39 43 46 49 52 56 57 58 59 61 66 76 84 85 78 84 87 83 93 93
84 80 74 66 63 59 55 53 50 48 48 46 43 40 36 33 32 33 33 35 37 39 41 44 46 48 50 52 55 56 55 53 56 60 69 72 82 77 80 85 91 87 85
85 83 76 70 66 62 59 57 55 55 52 50 49 45 41 39 40 41 40 42 45 45 47 49 51 52 51 53 54 55 54 51 44 49 67 75 79 78 78 85 82 86 85
86 83 78 74 68 65 61 58 57 56 54 54 52 48 45 44 45 47 47 50 50 49 51 53 55 55 52 54 58 59 59 60 62 65 69 69 63 70 75 74 74 79 80
77 80 77 73 68 63 63 61 60 55 56 56 51 49 48 48 50 51 52 54 53 53 55 57 58 58 53 54 55 57 60 65 64 68 64 60 66 66 64 65 67 61 70
65 64 66 62 57 58 58 55 52 53 52 50 50 48 50 51 53 54 54 56 57 57 59 60 60 59 58 52 48 51 62 68 71 72 65 62 60 60 56 52 55 57 64
48 51 51 52 52 48 47 48 49 50 50 50 50 49 50 52 55 54 54 57 60 62 64 63 62 60 59 54 39 51 62 57 67 66 63 62 58 56 55 54 54 55 59
39 41 44 44 43 42 42 44 47 49 50 49 51 51 53 54 53 53 55 58 60 66 67 64 63 62 62 51 40 54 56 64 64 60 57 57 56 56 55 56 58 56 53
38 40 40 40 39 37 39 41 44 45 49 52 56 57 57 56 54 54 57 59 59 62 65 66 66 63 45 47 57 61 59 61 58 58 54 53 53 56 57 58 59 59 58
34 35 38 42 41 38 38 41 44 48 52 55 59 62 59 55 53 53 55 57 59 61 62 63 62 59 54 55 61 57 61 58 54 53 52 51 53 55 56 56 61 64 67
35 40 46 47 46 43 43 44 46 48 51 56 59 57 56 58 55 58 60 61 62 60 59 65 66 62 59 58 60 63 63 54 51 48 49 51 52 54 55 53 55 60 63
38 42 49 53 50 49 48 48 51 55 58 59 58 56 53 56 56 58 58 59 50 49 61 71 78 70 66 63 68 69 63 53 48 48 48 48 50 52 53 52 52 55 61
37 39 45 51 54 55 55 56 56 55 54 48 44 44 46 49 48 38 39 46 51 51 63 72 80 79 77 70 71 68 62 50 48 47 47 47 47 47 47 48 51 54 58
38 40 42 45 51 55 55 53 49 43 38 37 41 45 47 51 54 53 46 47 63 63 68 75 78 77 75 76 68 65 57 50 47 46 45 44 42 43 44 43 47 51 56
39 41 43 44 46 45 42 38 35 34 35 39 42 42 46 51 55 56 56 57 63 68 72 74 66 62 64 64 66 60 55 49 46 45 42 41 38 40 38 38 44 45 49
40 43 42 39 36 33 31 31 32 35 37 39 41 45 48 54 56 57 55 53 53 54 58 62 64 65 63 64 61 55 52 45 43 42 39 38 34 34 35 36 39 44 46
36 35 33 30 29 29 30 32 34 35 36 38 40 42 44 49 52 51 51 48 47 47 45 40 36 38 44 48 47 48 47 44 40 37 37 36 32 32 29 31 35 37 42
30 29 28 27 27 29 30 31 32 33 35 36 37 38 39 39 40 41 41 40 39 40 40 43 44 48 47 41 40 44 45 43 36 34 37 35 32 29 27 27 29 31 35
27 26 26 26 27 28 29 30 32 33 33 35 36 35 34 33 34 34 34 33 33 33 34 37 40 41 39 39 41 43 46 40 35 36 37 35 32 28 26 26 26 26 30
24 25 25 25 26 27 27 29 31 32 33 33 31 30 30 31 32 32 32 32 32 31 31 33 36 37 38 39 39 41 41 39 38 36 37 35 32 28 28 26 24 21 23
20 21 21 22 24 27 27 28 30 30 30 29 29 30 30 31 31 31 31 32 32 32 31 34 35 36 37 37 37 36 38 39 39 36 36 36 35 31 28 27 24 21 20
21 22 23 24 24 26 27 26 26 27 27 29 31 32 34 34 33 33 33 34 35 35 36 33 34 34 36 37 36 36 36 36 34 33 36 37 37 34 32 31 26 24 24
Wind_Direction_850mb
197 198 199 199 200 201 200 201 205 209 211 212 209 211 220 245 322 350 352 344 340 331 326 319 314 313 312 314 313 314 316 316 314 317 322 324 323 326 327 326 325 324 324
201 202 202 205 206 204 204 207 211 214 216 216 217 221 227 245 296 329 336 339 335 332 325 318 313 312 309 310 310 312 313 313 313 314 317 321 323 325 326 327 326 323 324
204 206 207 209 210 209 210 213 214 216 218 220 225 231 234 249 276 294 314 320 323 322 322 318 315 312 309 306 306 307 307 308 310 312 315 320 324 327 328 326 327 325 324
208 210 212 213 213 214 216 217 219 220 223 227 230 236 239 249 262 279 291 302 305 308 314 317 315 309 305 304 303 304 305 309 312 313 317 322 324 327 327 325 322 322 322
213 215 217 216 216 217 220 222 222 223 227 230 237 239 243 254 265 275 282 286 290 296 302 308 309 307 304 302 303 305 306 310 312 316 318 321 322 318 319 318 311 313 316
219 221 220 218 220 222 225 227 226 229 231 236 242 242 250 259 267 275 280 281 283 288 296 302 306 308 304 301 301 303 305 307 311 312 319 310 309 312 311 311 314 312 312
225 225 223 223 224 228 230 230 232 235 236 242 245 247 256 263 271 278 279 279 280 283 290 299 305 307 303 301 300 301 302 304 306 305 303 308 307 317 318 313 306 301 303
230 228 227 227 228 231 233 237 238 237 241 247 248 254 260 268 274 277 278 277 280 284 290 298 301 301 301 299 300 302 305 310 311 311 308 307 312 307 307 307 306 304 303
231 230 229 229 231 234 237 239 239 240 245 247 252 259 267 272 274 275 274 276 279 284 289 294 297 299 300 298 299 302 302 301 307 305 305 308 313 315 314 315 318 317 312
231 232 229 231 233 239 241 242 243 246 248 250 255 263 270 274 272 272 272 276 280 284 287 290 293 297 299 298 291 294 292 298 305 308 313 312 314 315 318 322 327 319 308
229 227 227 230 235 238 240 240 242 245 248 252 259 264 269 272 272 271 271 275 280 283 285 289 293 295 294 292 284 277 282 299 298 302 307 311 313 317 322 329 329 322 314
221 220 221 225 228 227 228 231 235 241 248 253 257 260 264 269 274 275 274 275 278 282 285 289 292 293 293 290 277 268 278 294 299 300 304 308 313 320 324 327 327 327 321
209 216 220 219 217 220 230 238 242 245 250 254 257 262 268 270 274 276 277 277 278 279 285 290 293 295 284 273 276 282 287 298 295 296 301 308 313 318 321 322 325 329 325
217 222 222 223 226 233 239 242 247 251 255 260 264 267 271 273 273 275 278 278 279 282 287 289 287 279 277 278 286 289 297 298 291 296 301 306 310 315 318 324 328 330 328
230 230 229 231 235 240 244 248 252 257 261 263 264 263 265 270 275 276 281 283 283 284 287 287 284 279 280 283 283 288 295 292 288 291 296 303 309 313 316 323 328 330 330
236 238 239 241 244 248 252 255 259 262 265 266 265 265 267 274 279 283 285 288 284 285 291 290 288 285 284 285 285 289 293 289 287 290 296 303 308 311 315 321 328 331 331
249 248 246 247 249 253 257 260 262 263 265 265 266 270 278 283 284 283 279 276 276 272 267 267 272 274 275 278 283 287 290 286 285 290 297 303 305 307 312 319 328 331 333
256 258 259 257 255 255 258 260 261 260 260 264 270 277 280 282 284 285 283 287 281 276 269 268 268 272 276 280 280 286 286 282 283 289 295 299 301 304 310 319 327 332 334
259 259 257 255 254 255 256 256 258 263 268 271 273 276 282 286 287 288 287 284 282 278 273 271 271 273 272 274 280 282 279 278 283 289 293 295 298 300 306 317 326 331 333
256 256 255 253 252 253 255 259 265 270 273 278 285 291 295 296 295 295 296 295 291 285 280 278 275 273 274 276 279 277 273 275 282 287 290 290 292 296 303 316 327 330 335
253 250 249 247 247 252 259 265 269 274 281 287 293 296 298 298 304 306 308 306 300 294 291 288 285 283 284 280 275 270 271 277 282 286 284 285 290 292 295 311 324 330 335
245 243 244 249 256 259 263 267 275 282 288 292 293 295 296 302 306 307 306 305 302 297 293 286 284 287 289 283 275 273 276 279 282 281 280 283 285 288 289 305 320 328 340
243 247 251 255 258 263 271 277 282 286 288 289 292 297 302 307 307 307 306 304 299 295 292 286 283 283 282 278 277 278 278 279 280 277 279 279 281 285 282 297 314 325 343
247 248 250 257 265 271 276 280 281 283 286 290 295 300 302 302 304 305 305 304 302 297 294 289 286 285 284 282 279 276 277 279 278 277 277 276 279 283 279 286 301 311 333
246 253 264 271 274 275 278 282 286 289 291 293 293 294 295 297 301 303 305 303 302 299 296 291 288 288 286 284 281 279 277 277 277 276 275 274 274 279 280 278 290 290 310
254 265 269 271 277 281 284 286 287 288 290 290 292 294 296 298 300 302 304 303 301 301 299 296 292 290 287 285 283 280 278 276 275 275 274 273 272 276 278 272 276 282 289